This is the latest recevied weather packets stored in our database for station/object K4ZZR. If no packets are shown the sender has not sent any weather packets the latest 10 day(s).
| Time | Temp. | Humidity | Pressure | Rain* | Wind** | Luminosity | Snow |
|---|---|---|---|---|---|---|---|
| 1778200419 | 26.67° C | 81% | 1013.3 hPa | 0 mm | - | 0 W/m² | - |
| 1778200116 | 27.22° C | 81% | 1013.4 hPa | 0 mm | - | 0 W/m² | - |
| 1778199812 | 27.22° C | 81% | 1013.2 hPa | 0 mm | - | 0 W/m² | - |
| 1778199509 | 27.22° C | 81% | 1013.1 hPa | 0 mm | - | 0 W/m² | - |
| 1778199205 | 27.22° C | 81% | 1013.2 hPa | 0 mm | - | 0 W/m² | - |
| 1778198901 | 27.22° C | 81% | 1013.3 hPa | 0 mm | - | 1 W/m² | - |
| 1778198598 | 27.22° C | 81% | 1013.3 hPa | 0 mm | - | 2 W/m² | - |
| 1778198294 | 27.22° C | 82% | 1013.4 hPa | 0 mm | - | 4 W/m² | - |
| 1778197992 | 27.22° C | 81% | 1013 hPa | 0 mm | - | 7 W/m² | - |
| 1778197689 | 27.22° C | 80% | 1013.1 hPa | 0 mm | - | 10 W/m² | - |
| 1778197385 | 27.78° C | 79% | 1013.1 hPa | 0 mm | - | 15 W/m² | - |
| 1778197082 | 27.78° C | 78% | 1013.2 hPa | 0 mm | - | 21 W/m² | - |
| 1778196779 | 27.78° C | 79% | 1013 hPa | 0 mm | - | 27 W/m² | - |
| 1778196478 | 27.78° C | 78% | 1013.1 hPa | 0 mm | - | 33 W/m² | - |
| 1778196174 | 27.78° C | 78% | 1013 hPa | 0 mm | - | 40 W/m² | - |
| 1778195870 | 27.78° C | 77% | 1012.8 hPa | 0 mm | - | 55 W/m² | - |
| 1778195567 | 27.78° C | 78% | 1012.9 hPa | 0 mm | - | 52 W/m² | - |
| 1778195264 | 28.33° C | 77% | 1012.9 hPa | 0 mm | - | 73 W/m² | - |
| 1778194961 | 28.33° C | 77% | 1012.8 hPa | 0 mm | - | 82 W/m² | - |
| 1778194661 | 28.33° C | 77% | 1012.8 hPa | 0 mm | - | 88 W/m² | - |
| 1778194357 | 28.33° C | 76% | 1013 hPa | 0 mm | - | 103 W/m² | - |
| 1778194053 | 28.89° C | 76% | 1012.8 hPa | 0 mm | - | 118 W/m² | - |
| 1778193750 | 28.89° C | 76% | 1012.9 hPa | 0 mm | - | 129 W/m² | - |
| 1778193446 | 28.89° C | 75% | 1012.6 hPa | 0 mm | - | 136 W/m² | - |
| 1778193143 | 28.89° C | 74% | 1012.6 hPa | 0 mm | - | 152 W/m² | - |
* Rain latest hour (hover to see other rain measurements)
** Current wind speed in m/s (hover to see current wind gust speed)